GEFSMA_con_probscp_006.txt.gz
Probability
31 29 22 17 28 52 69 67 50 30 19 12 6 2 0 0 0 0 0 3 15 40 67 85 91 90 88 79 58 31 14 7 3 1 0 0 0 0 0 0 0 0 0
61 59 51 39 39 54 70 73 60 45 36 26 13 4 1 0 1 2 2 5 24 53 76 89 95 94 92 85 66 42 23 10 4 1 0 0 0 0 0 0 0 0 0
85 87 83 70 61 64 74 79 70 59 49 35 19 6 1 0 1 4 5 9 26 58 82 93 97 97 95 90 81 68 49 25 7 0 0 0 0 0 0 0 0 0 0
80 90 95 90 85 85 88 86 74 59 45 30 15 4 0 0 1 4 7 11 25 51 78 90 92 92 90 87 83 77 66 44 18 4 3 3 2 0 0 0 0 0 0
75 88 97 97 97 99 99 93 74 49 30 17 7 2 0 0 0 2 6 11 23 45 64 76 82 82 78 77 72 61 54 44 25 12 17 23 15 4 0 0 0 0 0
84 91 96 97 98 98 98 93 74 43 19 7 2 0 0 0 0 1 3 8 18 33 44 51 59 60 54 56 52 38 31 27 17 15 32 49 41 17 3 0 0 0 0
84 87 92 94 95 95 96 93 78 49 21 6 1 0 0 0 0 0 1 4 10 17 22 23 28 29 25 24 23 17 14 10 8 12 28 49 51 28 7 0 0 0 0
65 75 84 88 88 89 90 89 78 55 26 7 2 1 0 0 0 0 0 1 4 7 7 5 6 7 5 4 3 3 3 3 4 7 13 23 30 24 9 1 0 0 0
43 57 72 76 75 75 76 75 69 52 27 11 6 3 1 0 0 0 0 0 1 1 1 0 1 1 0 0 0 0 0 0 1 2 3 4 8 9 6 2 0 0 0
20 31 45 50 50 52 51 48 45 38 25 14 8 3 1 0 0 0 0 0 0 0 0 1 0 0 0 0 0 0 0 0 0 0 0 0 0 1 2 1 0 0 0
4 9 17 21 22 24 24 21 19 17 14 10 6 2 0 0 0 0 0 0 0 0 0 0 0 0 0 0 0 0 0 0 0 0 0 0 0 0 0 0 0 0 0
0 1 3 5 6 7 8 8 5 3 4 3 2 0 0 0 0 0 0 0 0 0 0 0 0 0 0 0 0 0 0 0 0 0 0 0 0 0 0 0 0 0 0
0 0 0 1 2 2 4 4 3 1 0 0 0 0 0 0 0 0 0 0 0 0 0 0 0 0 0 0 0 0 0 0 0 0 0 0 0 0 0 0 0 0 0
0 0 0 0 0 0 1 2 2 1 0 0 0 0 0 0 0 0 0 0 0 0 0 0 0 0 0 0 0 0 0 0 0 0 0 0 0 0 0 0 0 0 0
0 0 0 0 0 0 0 1 1 0 0 0 0 0 0 0 0 0 0 0 0 0 0 0 0 0 0 0 0 0 0 0 0 0 0 0 0 0 0 0 0 0 0
0 0 0 0 0 0 0 0 0 0 0 0 0 0 0 0 0 0 0 0 0 0 0 0 0 0 0 0 0 0 0 0 0 0 0 0 0 0 0 0 0 0 0
0 0 0 0 0 0 0 0 0 0 0 0 0 0 0 0 0 0 0 0 0 0 0 0 0 0 0 0 0 0 0 0 0 0 0 0 0 0 0 0 0 0 0
0 0 0 0 0 0 0 0 0 0 0 0 0 0 0 0 0 0 0 0 0 0 0 0 0 0 0 0 0 0 0 0 0 0 0 0 0 0 0 0 0 0 0
0 0 0 0 0 0 0 0 0 0 0 0 0 0 0 0 0 0 0 0 0 0 0 0 0 0 0 0 0 0 0 0 0 0 0 0 0 0 0 0 0 0 0
0 0 0 0 0 0 0 0 0 0 0 0 0 0 0 0 0 0 0 0 0 0 0 0 0 0 0 0 0 0 0 0 0 0 0 0 0 0 0 0 0 0 0
0 0 0 0 0 0 0 0 0 0 0 0 0 0 0 0 0 0 0 0 0 0 0 0 0 0 0 0 0 0 0 0 0 0 0 0 0 0 0 0 0 0 0
0 0 0 0 0 0 0 0 0 0 0 0 0 0 0 0 0 0 0 0 0 0 0 0 0 0 0 0 0 0 0 0 0 0 0 0 0 0 0 0 0 0 0
0 0 0 0 0 0 0 0 0 0 0 0 0 0 0 0 0 0 0 0 0 0 0 0 0 0 0 0 0 0 0 0 0 0 0 0 0 0 0 0 0 0 0
0 0 0 0 0 0 0 0 0 0 0 0 0 0 0 0 0 0 0 0 0 0 0 0 0 0 0 0 0 0 0 0 0 0 0 0 0 0 0 0 0 0 0
0 0 0 0 0 0 0 0 0 0 0 0 0 0 0 0 0 0 0 0 0 0 0 0 0 0 0 0 0 0 0 0 0 0 0 0 0 0 0 0 0 0 0
0 0 0 0 0 0 0 0 0 0 0 0 0 0 0 0 0 0 0 0 0 0 0 0 0 0 0 0 0 0 0 0 0 0 0 0 0 0 0 0 0 0 0

GEFSMA_con_probscp_012.txt.gz
Probability
84 73 60 49 40 36 27 14 6 3 5 7 7 5 4 3 2 1 0 0 0 0 0 0 0 0 0 0 1 1 2 2 1 0 0 0 0 0 0 0 0 0 0
89 83 71 58 50 48 44 33 24 19 16 13 7 5 6 7 5 2 0 0 0 0 0 0 1 1 1 4 6 5 5 6 4 2 0 0 0 0 0 0 0 0 0
78 75 67 61 61 62 58 52 47 46 41 31 21 17 19 19 12 5 2 0 0 0 0 1 3 3 5 10 15 14 11 10 8 5 2 0 0 0 0 0 0 0 0
49 51 54 60 69 74 69 62 63 66 66 60 52 45 41 32 17 6 2 0 0 0 0 2 5 6 7 13 20 23 20 15 13 10 5 1 0 0 0 0 0 0 0
33 42 54 64 76 84 81 74 74 79 82 80 73 62 50 33 16 5 1 0 0 0 0 1 4 5 7 15 25 28 26 21 18 15 9 4 1 0 0 0 0 0 0
28 38 50 59 71 80 81 82 82 84 85 78 62 47 33 20 10 4 1 0 0 0 0 1 2 4 11 21 28 28 22 19 18 16 11 5 2 1 0 0 0 0 0
15 23 30 38 49 59 67 75 79 79 73 58 38 23 12 6 3 2 1 0 0 0 0 0 1 6 17 23 23 19 14 12 14 12 7 3 2 1 0 0 0 0 0
3 6 10 16 23 33 46 58 66 69 59 41 26 14 4 0 0 0 0 0 0 0 0 0 0 5 14 20 16 10 8 10 14 14 8 2 0 0 0 0 0 0 0
0 1 2 4 8 15 23 35 48 59 54 39 27 17 5 1 0 0 0 0 0 0 0 0 0 1 7 13 11 5 4 8 13 16 12 4 0 0 0 0 0 0 0
0 0 0 0 2 5 8 15 28 46 53 46 34 21 10 2 0 0 0 0 0 0 0 0 0 0 3 6 6 3 1 3 6 9 8 4 1 0 0 0 0 0 0
0 0 0 0 0 1 2 5 12 26 41 43 33 23 16 9 3 0 0 0 0 0 0 0 0 0 1 2 1 1 1 0 0 1 2 1 0 0 0 0 0 0 0
0 0 0 0 0 0 0 1 4 10 20 25 20 15 17 14 6 1 0 0 0 0 0 0 0 0 0 0 0 0 1 1 0 0 0 0 0 0 0 0 0 0 0
0 0 0 0 0 0 0 0 1 2 6 7 5 5 9 10 4 0 0 0 0 0 0 0 0 0 0 1 0 0 0 0 0 0 0 0 0 0 0 0 0 0 0
0 0 0 0 0 0 0 0 0 0 1 1 0 1 2 2 1 0 0 0 0 0 0 0 0 0 0 0 0 0 0 0 0 0 0 0 0 0 0 0 0 0 0
0 0 0 0 0 0 0 0 0 0 0 0 0 0 0 0 0 0 0 0 0 0 0 0 0 0 0 0 0 0 0 0 0 0 0 0 0 0 0 0 0 0 0
0 0 0 0 0 0 0 0 0 0 0 0 0 0 0 0 0 0 0 0 0 0 0 0 0 0 0 0 0 0 0 0 0 0 0 0 0 0 0 0 0 0 0
0 0 0 0 0 0 0 0 0 0 0 0 0 0 0 0 0 0 0 0 0 0 0 0 0 0 0 0 0 0 0 0 0 0 0 0 0 0 0 0 0 0 0
0 0 0 0 0 0 0 0 0 0 0 0 0 0 0 0 0 0 0 0 0 0 0 0 0 0 0 0 0 0 0 0 0 0 0 0 0 0 0 0 0 0 0
0 0 0 0 0 0 0 0 0 0 0 0 0 0 0 0 0 0 0 0 0 0 0 0 0 0 0 0 0 0 0 0 0 0 0 0 0 0 0 0 0 0 0
0 0 0 0 0 0 0 0 0 0 0 0 0 0 0 0 0 0 0 0 0 0 0 0 0 0 0 0 0 0 0 0 0 0 0 0 0 0 0 0 0 0 0
0 0 0 0 0 0 0 0 0 0 0 0 0 0 0 0 0 0 0 0 0 0 0 0 0 0 0 0 0 0 0 0 0 0 0 0 0 0 0 0 0 0 0
0 0 0 0 0 0 0 0 0 0 0 0 0 0 0 0 0 0 0 0 0 0 0 0 0 0 0 0 0 0 0 0 0 0 0 0 0 0 0 0 0 0 0
0 0 0 0 0 0 0 0 0 0 0 0 0 0 0 0 0 0 0 0 0 0 0 0 0 0 0 0 0 0 0 0 0 0 0 0 0 0 0 0 0 0 0
0 0 0 0 0 0 0 0 0 0 0 0 0 0 0 0 0 0 0 0 0 0 0 0 0 0 0 0 0 0 0 0 0 0 0 0 0 0 0 0 0 0 0
0 0 0 0 0 0 0 0 0 0 0 0 0 0 0 0 0 0 0 0 0 0 0 0 0 0 0 0 0 0 0 0 0 0 0 0 0 0 0 0 0 0 0
0 0 0 0 0 0 0 0 0 0 0 0 0 0 0 0 0 0 0 0 0 0 0 0 0 0 0 0 0 0 0 0 0 0 0 0 0 0 0 0 0 0 0

GEFSMA_con_probscp_018.txt.gz
Probability
96 95 96 97 95 89 81 65 45 32 27 19 12 7 5 6 14 23 35 51 53 31 9 1 1 0 0 0 0 0 2 6 8 7 6 5 3 1 0 0 0 0 0
81 81 82 85 87 86 82 68 48 37 34 27 19 12 10 12 18 26 35 47 51 38 19 8 5 2 1 1 2 3 9 16 22 21 16 10 6 3 2 1 0 0 0
55 60 64 69 76 82 83 76 61 52 48 41 33 25 22 24 25 29 38 46 49 48 39 26 17 11 8 6 8 14 26 39 48 50 40 26 17 10 4 2 1 0 0
32 42 54 63 72 80 85 85 80 75 70 64 57 49 44 44 43 42 46 51 55 56 56 48 38 32 25 19 21 33 49 63 74 76 69 55 40 24 10 4 2 1 0
14 22 36 48 56 67 77 85 90 91 89 86 80 75 70 68 70 68 64 63 63 60 61 63 59 52 42 35 40 54 67 78 86 89 88 81 69 51 28 12 5 1 0
2 5 11 17 24 38 54 68 76 81 84 86 86 84 82 81 86 88 84 77 71 63 61 66 69 62 51 43 47 59 71 81 90 95 97 95 91 79 57 31 13 3 0
0 0 0 1 4 13 28 40 46 50 56 66 72 70 66 69 78 86 89 88 80 68 60 60 67 69 63 47 38 46 60 74 87 95 98 98 98 94 81 56 25 6 1
0 0 0 0 0 4 11 18 23 24 27 38 50 49 39 39 51 66 81 91 88 76 61 53 62 74 73 59 39 31 45 64 78 89 95 96 96 94 86 65 32 8 1
0 0 0 0 0 1 3 8 12 12 12 19 36 44 34 25 29 46 68 83 86 81 67 56 58 66 73 73 57 37 39 54 64 76 87 90 86 80 69 49 26 9 2
0 0 0 0 0 0 0 2 4 6 7 10 25 44 45 39 35 35 47 62 70 73 70 64 60 62 72 81 74 53 39 40 46 58 71 75 71 60 42 27 17 9 4
0 0 0 0 0 0 0 0 1 3 5 6 14 29 43 49 43 30 26 37 50 57 63 66 64 67 78 84 74 50 27 21 26 36 46 51 51 45 32 23 19 15 11
0 0 0 0 0 0 0 0 0 2 4 5 7 14 27 37 34 24 18 24 38 53 65 69 66 69 75 75 58 29 10 6 9 15 20 24 26 27 27 25 24 22 19
0 0 0 0 0 0 0 0 0 1 2 4 5 8 15 21 23 24 24 28 40 59 75 75 64 60 60 54 35 12 2 1 1 3 4 6 7 8 11 14 15 15 16
1 0 0 0 0 0 0 0 0 0 2 2 2 4 7 11 16 25 33 42 54 70 83 76 55 42 40 32 16 4 1 0 0 0 0 0 0 0 1 2 3 4 5
6 3 1 0 0 0 0 0 0 0 1 2 2 2 2 4 8 18 33 49 64 79 86 69 39 23 20 14 6 2 2 1 0 0 0 0 0 0 0 0 0 0 0
18 12 5 1 0 0 0 0 0 0 1 3 3 1 0 1 3 11 26 44 62 78 78 54 24 9 5 4 2 2 2 1 0 0 0 0 0 0 0 0 0 0 0
31 23 12 4 1 0 0 0 0 0 1 2 2 1 0 0 2 10 22 37 55 68 58 30 10 2 0 0 0 1 1 0 0 0 0 0 0 0 0 0 0 0 0
38 30 19 8 2 0 0 0 0 0 1 1 1 0 0 0 3 9 18 29 43 49 35 14 2 1 0 0 0 0 0 0 0 0 0 0 0 0 0 0 0 0 0
42 35 24 11 4 1 0 0 0 0 0 0 0 0 0 0 2 6 12 20 27 26 18 7 1 0 0 0 0 0 0 0 0 0 0 0 0 0 0 0 0 0 0
37 37 29 17 7 2 0 0 0 0 0 0 0 0 0 0 1 2 6 11 13 11 6 2 0 0 0 0 0 0 0 0 0 0 0 0 0 0 0 0 0 0 0
25 31 32 22 10 2 0 0 0 0 0 0 0 0 0 0 0 0 2 3 4 3 1 0 0 0 0 0 0 0 0 0 0 0 0 0 0 0 0 0 0 0 0
15 24 31 26 13 3 0 0 0 0 0 0 0 0 0 0 0 0 0 0 0 0 0 0 0 0 0 0 0 0 0 0 0 0 0 0 0 0 0 0 0 0 0
12 19 27 28 18 6 0 0 0 0 0 0 0 0 0 0 0 0 0 0 0 0 0 0 0 0 0 0 0 0 0 0 0 0 0 0 0 0 0 0 0 0 0
9 13 19 25 20 7 0 0 0 0 0 0 0 0 0 0 0 0 0 0 0 0 0 0 0 0 0 0 0 0 0 0 0 0 0 0 0 0 0 0 0 0 0
5 6 8 13 13 7 1 0 0 0 0 0 0 0 0 0 0 0 0 0 0 0 0 0 0 0 0 0 0 0 0 0 0 0 0 0 0 0 0 0 0 0 0
1 1 2 4 6 6 2 0 0 0 0 0 0 0 0 0 0 0 0 0 0 0 0 0 0 0 0 0 0 0 0 0 0 0 0 0 0 0 0 0 0 0 0

GEFSMA_con_probscp_024.txt.gz
Probability
96 94 95 95 93 89 86 84 87 89 89 86 79 67 51 40 43 55 69 79 84 85 85 80 69 52 36 26 23 28 29 22 15 8 3 1 1 0 0 0 0 0 0
96 94 92 89 83 75 70 72 79 83 83 78 69 61 52 44 44 51 61 74 83 86 85 82 75 63 52 44 42 45 45 38 26 16 9 5 3 2 1 1 1 1 0
93 90 84 77 69 62 57 61 67 70 70 67 61 56 55 53 49 49 54 65 76 81 81 81 80 74 66 63 64 65 65 59 45 32 24 19 14 10 6 4 3 2 1
72 71 68 62 56 53 51 52 57 60 59 58 57 56 57 56 52 49 53 62 69 72 73 75 78 78 73 72 75 78 80 75 62 50 45 43 36 29 22 16 11 7 5
39 42 44 43 39 37 36 37 45 51 51 49 45 45 50 54 53 51 55 61 66 68 68 68 74 80 79 78 81 85 89 86 77 68 67 67 63 54 45 35 28 19 13
18 20 21 22 20 18 18 20 25 31 34 31 24 25 36 45 52 56 60 64 67 69 68 68 76 83 84 81 83 89 91 91 89 85 85 85 82 76 67 55 44 35 28
8 8 8 7 7 5 6 7 8 10 12 11 8 10 16 26 35 49 62 69 71 71 70 72 78 86 87 84 81 81 83 86 90 93 95 95 93 90 84 73 60 50 45
5 4 4 3 1 1 1 1 1 1 1 2 3 4 5 8 14 27 48 64 71 76 73 72 77 83 86 87 79 66 65 72 79 88 94 97 96 95 92 87 76 63 55
12 10 6 3 1 0 0 0 0 0 0 0 1 2 1 1 3 11 25 43 64 79 80 76 75 80 86 90 83 69 59 60 66 76 86 93 92 89 89 89 85 73 63
22 19 14 8 3 1 0 0 0 1 1 1 0 0 0 0 1 3 8 21 46 70 83 83 79 81 87 90 86 76 64 57 59 67 76 83 82 79 78 81 82 77 70
35 33 30 23 12 3 0 0 0 1 2 3 2 1 0 0 1 1 2 8 23 49 73 85 86 86 88 86 75 63 52 45 45 49 56 64 69 70 72 74 76 73 70
50 51 51 44 27 11 3 0 0 1 2 3 4 4 2 1 1 2 2 2 9 29 58 80 90 91 88 76 55 36 26 20 20 21 26 36 46 53 59 63 65 63 61
66 68 67 58 40 21 8 2 0 0 2 3 3 4 4 2 1 2 2 2 4 19 44 70 86 91 82 61 34 15 7 4 3 3 6 11 18 24 30 36 40 41 41
83 81 75 63 48 31 17 8 3 2 2 3 3 4 4 3 2 2 1 1 3 11 30 54 72 78 68 42 17 4 1 0 0 0 0 1 2 4 6 9 12 13 14
92 89 83 73 61 46 31 19 11 6 3 3 4 4 4 4 3 2 1 0 1 4 15 34 50 54 45 24 7 2 1 0 0 0 0 0 0 0 0 0 0 0 0
86 88 89 86 78 66 49 34 22 11 4 2 3 3 3 3 2 1 0 0 0 1 5 17 28 32 26 13 5 3 1 0 0 0 0 0 0 0 0 0 0 0 0
63 71 82 87 86 77 65 51 32 14 4 1 1 1 1 1 1 0 0 0 0 0 2 6 14 18 15 9 5 2 1 0 0 0 0 0 0 0 0 0 0 0 0
32 41 58 74 80 78 74 64 42 20 8 2 0 0 0 0 0 0 0 0 0 0 1 2 5 8 7 5 2 1 0 0 0 0 0 0 0 0 0 0 0 0 0
11 17 31 48 63 71 74 68 50 30 16 6 1 0 0 0 0 0 0 0 0 0 1 1 1 1 1 1 0 0 0 0 0 0 0 0 0 0 0 0 0 0 0
3 5 12 23 36 51 63 65 53 35 23 13 5 1 1 0 0 0 0 0 0 0 0 0 0 0 0 0 0 0 0 0 0 0 0 0 0 0 0 0 0 0 0
0 1 4 7 13 24 37 46 40 28 24 20 11 4 2 0 0 0 0 0 0 0 0 0 0 0 0 0 0 0 0 0 0 0 0 0 0 0 0 0 0 0 0
0 0 1 1 3 6 11 15 16 18 23 22 14 6 2 0 0 0 0 0 0 0 0 0 0 0 0 0 0 0 0 0 0 0 0 0 0 0 0 0 0 0 0
0 0 0 0 0 0 0 0 2 7 15 17 12 7 2 0 0 0 0 0 0 0 0 0 0 0 0 0 0 0 0 0 0 0 0 0 0 0 0 0 0 0 0
0 0 0 0 0 0 0 0 0 1 4 7 7 5 2 0 0 0 0 0 0 0 0 0 0 0 0 0 0 0 0 0 0 0 0 0 0 0 0 0 0 0 0
0 0 0 0 0 0 0 0 0 0 0 1 2 2 1 0 0 0 0 0 0 0 0 0 0 0 0 0 0 0 0 0 0 0 0 0 0 0 0 0 0 0 0
0 0 0 0 0 0 0 0 0 0 1 1 1 0 0 0 0 0 0 0 0 0 0 0 0 0 0 0 0 0 0 0 0 0 0 0 0 0 0 0 0 0 0

GEFSMA_con_probscp_030.txt.gz
Probability
14 7 1 1 2 3 4 4 6 9 9 7 4 3 2 1 0 0 0 1 3 5 11 24 36 38 31 20 13 11 9 8 8 6 3 1 0 0 0 0 0 0 0
22 11 2 1 1 2 2 2 3 4 4 4 3 2 1 1 0 0 0 1 3 4 10 22 33 35 30 20 12 12 13 10 8 6 5 2 0 0 0 0 0 0 0
25 13 3 0 0 0 0 0 1 1 1 1 1 0 0 1 0 0 1 1 2 3 8 19 29 33 30 21 14 16 20 16 11 8 6 4 2 0 0 0 0 0 0
22 12 3 1 0 0 0 0 0 0 0 0 0 0 0 0 0 0 0 0 1 2 5 13 23 30 29 22 17 20 24 24 20 14 9 7 4 1 0 0 0 0 0
15 8 3 1 0 0 0 0 0 0 0 0 0 0 0 0 0 0 0 0 0 1 5 10 19 27 28 24 21 20 22 27 29 23 16 11 7 3 1 0 0 0 0
6 4 1 0 0 0 0 0 0 0 0 0 0 0 0 0 0 0 0 0 0 3 7 13 22 29 29 27 24 20 19 25 30 28 23 18 14 9 4 2 1 0 0
1 1 0 0 0 0 0 0 0 0 0 0 0 0 0 0 0 0 0 0 1 4 9 15 23 30 33 33 28 21 17 21 26 27 25 23 21 18 12 7 2 0 0
0 0 0 0 0 0 0 0 0 0 0 0 0 0 0 0 0 0 0 0 1 3 6 10 17 25 33 37 33 23 18 20 22 25 25 23 23 25 24 15 6 2 1
0 0 0 0 0 0 0 0 0 0 0 0 0 0 0 0 0 0 0 0 0 1 1 4 9 16 25 33 32 25 21 20 22 22 22 21 21 26 28 21 13 7 4
0 1 1 1 0 0 0 0 0 0 0 0 0 0 0 0 0 0 0 0 0 0 0 1 3 7 14 23 27 24 19 17 18 18 17 17 16 19 22 19 15 12 9
1 1 2 2 1 1 0 0 0 0 0 0 0 0 0 0 0 0 0 0 0 0 0 0 0 2 7 15 20 19 14 10 10 11 12 12 12 14 16 14 13 12 12
2 3 3 3 2 2 1 0 0 0 0 0 0 0 0 0 0 0 0 0 0 0 0 0 0 1 3 8 13 14 11 6 5 5 6 7 8 10 12 12 12 13 15
2 2 2 2 2 3 2 1 0 0 0 0 0 0 0 0 0 0 0 0 0 0 0 0 0 0 1 3 6 9 8 5 2 1 2 2 3 5 6 9 11 14 16
1 1 1 0 1 3 4 3 1 0 0 0 0 0 0 0 0 0 0 0 0 0 0 0 0 0 0 0 2 4 4 2 1 0 0 0 0 1 1 3 6 7 9
0 0 0 0 1 2 4 4 2 1 0 0 0 0 0 0 0 0 0 0 0 0 0 0 0 0 0 0 0 1 1 0 0 0 0 0 0 0 0 0 1 1 1
0 0 0 0 0 1 2 2 2 1 0 0 0 0 0 0 0 0 0 0 0 0 0 0 0 0 0 0 0 0 0 0 0 0 0 0 0 0 0 0 0 0 0
0 0 0 0 0 0 0 0 1 1 0 0 0 0 0 0 0 0 0 0 0 0 0 0 0 0 0 0 0 0 0 0 0 0 0 0 0 0 0 0 0 0 0
0 0 0 0 0 0 0 0 0 0 0 0 0 0 0 0 0 0 0 0 0 0 0 0 0 0 0 0 0 0 0 0 0 0 0 0 0 0 0 0 0 0 0
0 0 0 0 0 0 0 0 0 0 0 0 0 0 0 0 0 0 0 0 0 0 0 0 0 0 0 0 0 0 0 0 0 0 0 0 0 0 0 0 0 0 0
0 0 0 0 0 0 0 0 0 0 0 0 0 0 0 0 0 0 0 0 0 0 0 0 0 0 0 0 0 0 0 0 0 0 0 0 0 0 0 0 0 0 0
0 0 0 0 0 0 0 0 0 0 0 0 0 0 0 0 0 0 0 0 0 0 0 0 0 0 0 0 0 0 0 0 0 0 0 0 0 0 0 0 0 0 0
0 0 0 0 0 0 0 0 0 0 0 0 0 0 0 0 0 0 0 0 0 0 0 0 0 0 0 0 0 0 0 0 0 0 0 0 0 0 0 0 0 0 0
0 0 0 0 0 0 0 0 0 0 0 0 0 0 0 0 0 0 0 0 0 0 0 0 0 0 0 0 0 0 0 0 0 0 0 0 0 0 0 0 0 0 0
0 0 0 0 0 0 0 0 0 0 0 0 0 0 0 0 0 0 0 0 0 0 0 0 0 0 0 0 0 0 0 0 0 0 0 0 0 0 0 0 0 0 0
0 0 0 0 0 0 0 0 0 0 0 0 0 0 0 0 0 0 0 0 0 0 0 0 0 0 0 0 0 0 0 0 0 0 0 0 0 0 0 0 0 0 0
0 0 0 0 0 0 0 0 0 0 0 0 0 0 0 0 0 0 0 0 0 0 0 0 0 0 0 0 0 0 0 0 0 0 0 0 0 0 0 0 0 0 0

GEFSMA_con_probscp_036.txt.gz
Probability
26 20 12 7 5 5 5 4 4 6 5 4 3 2 1 1 2 2 1 0 0 1 1 1 0 0 1 2 7 15 16 13 9 4 1 0 0 0 0 0 0 0 0
24 18 10 6 5 5 4 4 4 5 5 4 3 2 1 1 1 1 0 0 0 1 2 1 0 0 2 4 7 14 17 15 13 9 5 2 1 0 0 0 0 0 0
17 14 10 7 5 5 4 3 3 3 2 2 3 2 1 1 0 0 0 0 0 1 2 1 0 0 2 6 7 9 13 15 16 14 10 7 3 1 0 0 0 0 0
14 12 10 8 5 5 4 3 2 1 1 1 2 2 1 0 0 0 0 0 0 0 0 0 0 0 2 4 6 7 9 13 17 18 15 11 6 3 1 0 0 0 0
16 13 10 7 4 4 3 3 2 1 0 0 1 1 0 0 0 0 0 0 0 0 0 0 1 2 2 4 7 9 12 17 21 21 19 15 11 8 5 2 1 1 0
15 13 9 5 3 3 3 2 1 0 0 0 0 0 0 0 0 0 0 0 0 0 0 0 1 2 3 5 7 10 15 22 27 28 27 25 21 17 11 6 4 2 2
11 9 6 4 3 3 2 1 0 0 0 0 0 0 0 0 0 0 0 0 0 0 0 0 1 1 2 4 6 10 17 25 31 36 38 34 30 26 19 12 7 5 5
6 5 3 1 1 2 1 0 0 0 0 0 0 0 0 0 0 0 0 0 0 0 0 0 0 0 1 2 4 9 19 29 36 42 43 38 33 28 21 13 8 6 6
2 2 1 0 0 0 0 0 0 0 0 0 0 0 0 0 0 0 0 0 0 0 0 0 0 0 0 2 3 6 16 30 41 46 44 38 30 22 15 12 9 6 5
0 0 0 0 0 0 0 0 0 0 0 0 0 0 0 0 0 0 0 0 0 0 0 0 0 0 0 1 2 4 9 20 34 42 42 39 30 19 11 11 13 10 9
0 0 0 0 0 0 0 0 0 0 0 0 0 0 0 0 0 0 0 0 0 0 0 0 0 0 0 0 1 2 3 8 19 28 34 37 33 21 12 12 15 16 17
0 0 0 0 0 0 0 0 0 0 0 0 0 0 0 0 0 0 0 0 0 0 0 0 0 0 0 0 0 1 1 3 8 15 22 27 27 19 13 12 15 19 22
0 0 0 0 0 0 0 0 0 0 0 0 0 0 0 0 0 0 0 0 0 0 0 0 0 0 0 0 0 0 1 1 3 6 9 12 13 11 9 9 12 17 20
0 0 0 0 0 0 0 0 0 0 0 0 0 0 0 0 0 0 0 0 0 0 0 0 0 0 0 0 0 0 0 0 0 1 2 3 3 3 3 4 6 9 11
0 0 0 0 0 0 0 0 0 0 0 0 0 0 0 0 0 0 0 0 0 0 0 0 0 0 0 0 0 0 0 0 0 0 0 0 0 0 1 1 1 2 3
0 0 0 0 0 0 0 0 0 0 0 0 0 0 0 0 0 0 0 0 0 0 0 0 0 0 0 0 0 0 0 0 0 0 0 0 0 0 0 0 0 0 0
0 0 0 0 0 0 0 0 0 0 0 0 0 0 0 0 0 0 0 0 0 0 0 0 0 0 0 0 0 0 0 0 0 0 0 0 0 0 0 0 0 0 0
0 0 0 0 0 0 0 0 0 0 0 0 0 0 0 0 0 0 0 0 0 0 0 0 0 0 0 0 0 0 0 0 0 0 0 0 0 0 0 0 0 0 0
0 0 0 0 0 0 0 0 0 0 0 0 0 0 0 0 0 0 0 0 0 0 0 0 0 0 0 0 0 0 0 0 0 0 0 0 0 0 0 0 0 0 0
0 0 0 0 0 0 0 0 0 0 0 0 0 0 0 0 0 0 0 0 0 0 0 0 0 0 0 0 0 0 0 0 0 0 0 0 0 0 0 0 0 0 0
0 0 0 0 0 0 0 0 0 0 0 0 0 0 0 0 0 0 0 0 0 0 0 0 0 0 0 0 0 0 0 0 0 0 0 0 0 0 0 0 0 0 0
0 0 0 0 0 0 0 0 0 0 0 0 0 0 0 0 0 0 0 0 0 0 0 0 0 0 0 0 0 0 0 0 0 0 0 0 0 0 0 0 0 0 0
0 0 0 0 0 0 0 0 0 0 0 0 0 0 0 0 0 0 0 0 0 0 0 0 0 0 0 0 0 0 0 0 0 0 0 0 0 0 0 0 0 0 0
0 0 0 0 0 0 0 0 0 0 0 0 0 0 0 0 0 0 0 0 0 0 0 0 0 0 0 0 0 0 0 0 0 0 0 0 0 0 0 0 0 0 0
0 0 0 0 0 0 0 0 0 0 0 0 0 0 0 0 0 0 0 0 0 0 0 0 0 0 0 0 0 0 0 0 0 0 0 0 0 0 0 0 0 0 0
0 0 0 0 0 0 0 0 0 0 0 0 0 0 0 0 0 0 0 0 0 0 0 0 0 0 0 0 0 0 0 0 0 0 0 0 0 0 0 0 0 0 0

GEFSMA_con_probscp_042.txt.gz
Probability
90 91 94 96 94 87 84 80 67 53 44 34 21 13 9 7 8 11 16 16 10 3 2 4 3 2 5 7 4 1 0 0 0 1 0 0 0 0 0 0 0 0 0
84 87 91 92 91 87 84 79 68 58 49 37 24 17 14 13 14 14 14 13 9 4 4 4 3 2 3 6 6 2 1 2 2 2 1 0 0 0 0 0 0 0 0
70 77 85 87 87 85 84 79 72 63 51 37 27 22 22 21 18 16 15 13 9 5 5 5 3 2 4 8 8 5 4 5 6 5 2 1 1 1 0 0 0 0 0
54 64 75 78 80 82 80 74 69 62 49 36 27 22 25 26 19 14 13 11 8 5 4 5 5 5 7 10 12 11 9 8 8 7 4 3 3 2 1 1 0 0 0
41 50 59 63 67 72 72 65 61 58 49 36 22 16 19 22 17 11 8 6 4 3 4 5 6 7 8 10 14 15 14 12 11 9 7 5 4 3 2 2 1 0 0
28 33 40 44 49 57 59 55 51 49 43 29 15 10 11 12 11 8 4 2 1 1 2 4 5 5 6 9 13 15 16 17 17 14 9 6 5 4 4 3 2 1 0
14 18 22 28 37 45 47 43 38 32 27 20 12 8 7 7 6 5 4 2 1 0 1 3 3 3 3 5 8 11 14 18 21 20 15 10 9 7 6 4 2 1 0
5 6 10 17 27 35 36 32 25 19 14 12 10 8 6 5 3 3 2 2 1 0 1 1 1 1 1 1 3 5 8 12 18 22 23 21 17 13 9 5 3 1 0
2 3 6 11 19 26 29 25 18 13 10 9 8 5 4 4 3 2 1 1 0 0 0 0 0 0 0 0 0 1 2 5 11 19 25 27 25 20 13 9 6 5 4
1 1 3 8 13 19 23 21 15 11 9 8 5 3 3 3 2 1 0 0 0 0 0 0 0 0 0 0 0 0 0 2 5 11 18 23 26 26 22 18 17 16 14
0 0 1 4 8 12 17 19 16 13 10 7 4 2 1 2 1 0 0 0 0 0 0 1 1 1 1 1 0 0 0 0 1 5 9 15 23 32 34 31 30 30 28
0 0 0 1 3 6 10 16 17 15 13 11 8 4 2 1 0 0 0 0 0 0 1 2 2 2 2 1 0 0 0 0 0 1 4 8 17 32 40 39 39 40 40
0 0 0 0 1 2 6 11 14 15 18 18 14 11 8 3 1 0 0 0 0 0 1 2 1 1 1 1 0 0 0 0 0 0 1 2 9 21 30 33 36 39 40
0 0 0 0 0 0 2 6 9 13 19 21 19 19 17 10 4 2 1 0 0 0 1 1 1 0 0 0 0 0 0 0 0 0 0 0 4 9 14 17 21 23 23
0 0 0 0 0 0 0 2 4 8 14 18 22 24 24 20 13 8 4 1 0 0 0 1 2 1 0 0 0 0 1 0 0 0 0 0 1 3 4 5 6 7 7
0 0 0 0 0 0 0 0 1 3 7 12 17 21 25 27 24 18 12 7 4 2 2 2 3 2 1 0 0 0 1 1 0 0 0 0 0 1 1 1 1 1 1
0 0 0 0 0 0 0 0 0 0 2 5 8 11 17 25 29 29 25 18 11 8 6 6 6 4 1 0 0 0 1 1 0 0 0 0 0 0 0 0 0 0 0
0 1 1 0 0 0 0 0 0 0 0 1 2 3 8 15 25 35 36 29 20 15 13 12 10 6 2 1 0 0 1 1 0 0 0 0 0 0 0 0 0 0 0
1 1 1 1 1 0 0 0 0 0 0 0 0 1 2 5 15 29 36 35 31 26 22 18 14 9 4 2 1 0 0 0 0 0 0 0 0 0 0 0 0 0 0
0 1 1 1 1 0 0 0 0 0 0 0 0 0 0 2 7 16 26 36 43 40 32 25 20 15 8 3 1 0 0 0 0 0 0 0 0 0 0 0 0 0 0
0 0 0 1 1 0 0 0 0 0 0 0 0 0 0 1 2 5 14 27 39 41 39 33 28 22 13 5 2 1 0 0 0 0 0 0 0 0 0 0 0 0 0
0 0 0 0 0 0 0 0 0 0 0 0 0 0 0 0 0 1 4 10 18 25 31 34 35 29 20 10 5 2 0 0 0 0 0 0 0 0 0 0 0 0 0
0 1 1 1 1 0 0 0 0 0 0 0 0 0 0 0 0 0 0 0 3 7 14 24 32 34 28 18 11 5 1 0 0 0 0 0 0 0 0 0 0 0 0
0 1 2 2 2 1 0 0 0 0 0 0 0 0 0 0 0 0 0 0 0 1 3 9 19 25 24 19 14 8 3 0 0 0 0 0 0 0 0 0 0 0 0
0 0 1 2 2 1 0 0 0 0 0 0 0 0 0 0 0 0 0 0 0 0 0 2 5 9 9 9 10 7 2 0 0 0 0 0 0 0 0 0 0 0 0
0 0 0 1 1 0 0 0 1 1 1 0 0 0 0 0 0 0 0 0 0 0 0 0 0 0 0 1 4 4 1 0 0 0 0 0 0 0 0 0 0 0 0

GEFSMA_con_probscp_048.txt.gz
Probability
93 89 80 74 75 79 83 84 86 87 85 77 71 71 69 55 39 36 55 74 75 69 63 53 41 33 24 16 11 5 2 3 3 2 1 0 0 0 0 0 0 0 0
88 87 82 76 72 72 76 79 81 82 82 78 74 75 75 66 54 48 56 70 71 64 57 50 41 33 23 16 13 9 5 4 4 2 0 0 0 0 0 0 0 0 0
80 80 80 76 69 66 67 68 67 68 70 70 70 72 74 71 65 57 56 61 61 53 48 45 40 34 23 16 14 13 9 7 3 1 0 0 0 0 0 0 0 0 0
64 66 68 68 64 59 57 53 50 50 50 50 54 57 60 62 59 53 50 50 47 41 37 36 35 32 23 14 12 14 12 8 3 0 0 1 1 0 0 0 0 0 0
45 48 53 55 54 49 45 40 37 37 34 31 31 34 40 45 43 38 36 35 33 30 27 25 26 25 17 10 10 13 14 10 4 1 0 1 1 0 0 0 0 0 0
34 36 40 44 42 37 32 30 28 25 22 18 15 16 22 27 27 23 20 19 21 21 19 20 22 20 12 7 8 14 18 14 7 3 1 1 1 0 0 0 0 0 0
26 27 29 32 31 27 23 20 18 14 11 12 11 10 12 14 16 15 12 10 12 14 15 20 24 21 13 7 6 11 17 15 7 4 3 2 0 0 0 0 0 0 0
16 17 18 20 20 19 17 13 9 7 6 7 8 9 8 8 10 11 9 7 8 11 14 20 26 24 16 10 5 6 10 9 5 4 4 3 1 1 1 1 0 0 0
7 8 10 10 11 13 13 10 7 5 4 4 5 6 6 6 8 8 7 5 5 7 11 17 25 25 20 14 7 3 3 3 2 3 4 3 1 1 2 1 0 0 0
2 3 5 6 6 7 9 7 6 6 5 3 4 5 7 8 8 7 5 4 3 5 8 12 18 24 23 17 10 3 0 0 0 1 2 2 1 1 2 2 1 0 0
0 1 2 3 3 4 5 5 5 6 6 4 4 4 6 8 7 5 2 1 2 4 7 9 13 21 24 18 11 4 1 0 0 0 0 1 1 1 2 2 1 1 1
0 0 1 1 1 2 2 2 3 5 6 5 4 4 5 6 5 2 1 0 1 5 10 13 15 19 21 15 9 4 1 0 0 0 0 0 0 0 1 1 1 2 3
0 0 1 1 1 1 1 1 1 2 3 4 4 5 6 5 3 3 2 1 2 7 13 17 19 21 19 14 7 3 1 0 0 0 0 0 0 0 0 0 0 2 4
0 0 1 2 2 1 0 0 0 1 1 3 4 5 7 6 5 6 7 4 3 4 10 19 25 27 25 16 6 1 0 0 0 0 0 0 0 0 0 0 0 1 1
0 0 1 1 1 1 1 1 1 1 2 3 5 6 7 7 7 10 12 9 5 3 7 21 33 37 32 18 6 2 1 0 0 0 0 0 0 0 0 0 0 0 0
0 0 0 0 0 0 1 2 1 1 2 3 5 6 7 8 9 11 14 13 10 7 10 25 42 46 36 19 6 2 2 0 0 0 0 0 0 0 0 0 0 0 0
0 0 0 0 0 0 1 2 1 1 1 2 3 3 3 6 9 11 12 13 14 13 15 26 41 47 39 21 7 3 2 0 0 0 0 0 0 0 0 0 0 0 0
0 0 0 0 0 0 0 1 1 0 0 1 1 1 1 3 6 9 10 11 14 17 18 23 33 40 36 23 10 4 2 1 0 0 0 0 0 0 0 0 0 0 0
0 0 0 0 0 0 0 0 0 0 0 0 0 0 0 1 3 6 8 8 10 15 20 24 28 33 30 21 11 5 3 1 0 0 0 0 0 0 0 0 0 0 0
0 0 0 0 0 0 0 1 0 0 1 1 0 0 0 0 1 3 5 6 7 11 17 22 27 30 26 17 9 6 3 1 0 0 0 0 0 0 0 0 0 0 0
0 0 0 0 0 0 0 0 0 0 1 1 1 1 1 0 0 1 2 3 5 7 11 16 23 28 24 14 9 7 4 1 0 0 0 0 0 0 0 0 0 0 0
0 0 0 0 0 0 0 0 0 1 2 1 0 0 0 0 0 0 1 1 2 4 6 10 17 22 19 13 9 8 4 1 0 0 0 0 0 0 0 0 0 0 0
0 0 0 0 0 0 0 0 0 2 2 1 0 0 0 0 0 0 0 0 0 1 3 6 10 13 13 10 7 6 5 2 0 0 0 0 0 0 0 0 0 0 0
0 0 0 0 0 0 0 0 0 1 1 0 0 0 0 0 0 0 0 0 0 0 1 2 5 6 7 7 5 4 4 3 1 0 0 0 0 0 0 0 0 0 0
0 0 0 0 0 0 0 0 0 0 0 0 0 0 0 0 0 0 0 0 0 0 0 0 1 1 2 3 2 2 2 2 1 0 0 0 0 0 0 0 0 0 0
0 0 0 0 0 0 0 0 0 0 0 0 0 0 0 0 0 0 0 0 0 0 0 0 0 0 0 0 1 1 1 1 0 0 0 0 0 0 0 0 0 0 0

GEFSMA_con_probscp_054.txt.gz
Probability
37 37 36 34 32 32 36 42 42 39 39 38 34 32 31 25 16 10 6 5 12 30 52 60 50 40 34 28 19 12 7 2 0 0 0 0 0 0 0 0 0 0 0
38 37 34 29 24 23 25 26 25 25 26 26 25 26 27 25 18 11 7 6 11 24 44 56 50 41 35 27 21 18 13 7 3 0 0 0 0 0 0 0 0 0 0
30 27 23 19 15 14 13 10 9 9 11 11 12 15 19 20 19 14 11 9 10 18 34 45 43 39 33 25 21 22 21 15 8 2 0 0 0 0 0 0 0 0 0
15 13 11 10 9 8 7 5 3 2 3 3 3 5 8 13 15 15 13 9 8 13 23 30 29 29 27 21 18 22 24 20 12 5 1 0 0 0 0 0 0 0 0
6 4 4 4 4 3 2 2 1 0 0 0 0 0 2 6 9 10 9 7 5 7 13 18 18 18 19 17 16 21 24 20 14 7 2 1 1 0 0 0 0 0 0
2 1 1 1 1 0 0 1 1 0 0 0 0 0 1 3 4 5 4 3 2 3 7 11 12 12 13 14 14 18 20 17 12 8 3 1 2 1 0 0 0 0 0
1 1 0 0 0 0 0 1 1 0 0 0 0 0 1 2 2 2 1 1 1 2 4 7 9 9 9 9 9 11 13 13 10 7 4 2 1 0 0 0 0 0 0
0 0 0 0 0 0 0 1 1 0 0 0 0 0 0 1 1 0 0 0 0 1 1 4 7 8 7 7 5 5 8 11 9 5 4 2 1 1 1 1 0 0 0
0 0 0 0 0 0 0 0 0 0 0 0 0 0 0 0 0 0 0 0 0 0 0 3 6 7 7 6 4 3 5 7 6 4 4 4 2 1 2 2 1 0 0
0 0 0 0 0 0 0 0 0 0 0 0 0 0 0 0 0 0 0 0 0 0 0 1 3 5 6 6 5 3 2 2 2 3 5 7 5 3 2 2 1 0 0
0 0 0 0 0 0 0 0 0 0 0 0 0 0 0 0 0 0 0 0 0 0 0 0 2 3 5 5 5 3 1 1 1 2 4 7 8 6 3 1 0 0 0
0 0 0 0 0 0 0 0 0 0 0 0 0 0 0 0 0 0 0 0 0 0 0 1 2 3 3 4 4 2 1 1 1 1 3 4 7 7 4 1 0 0 0
0 0 0 0 0 0 0 0 0 0 0 0 0 0 0 0 0 0 0 0 0 0 0 1 1 2 2 2 2 1 0 0 0 1 1 1 2 3 3 1 0 0 0
0 0 0 0 0 0 0 0 0 0 0 0 0 0 0 0 0 0 0 0 0 0 0 0 0 0 1 1 1 0 0 0 0 0 0 0 0 1 1 1 0 0 0
0 0 0 0 0 0 0 0 0 0 0 0 0 0 0 0 0 0 0 0 0 0 0 0 0 0 0 0 0 0 0 0 0 0 0 0 0 0 0 0 0 0 0
0 0 0 0 0 0 0 0 0 0 0 0 0 0 0 0 0 0 0 0 0 0 0 0 0 0 0 0 0 0 0 0 0 0 0 0 0 0 0 0 0 0 0
0 0 0 0 0 0 0 0 0 0 0 0 0 0 0 0 0 0 0 0 0 0 0 0 0 0 0 0 0 0 0 0 0 0 0 0 0 0 0 0 0 0 0
0 0 0 0 0 0 0 0 0 0 0 0 0 0 0 0 0 0 0 0 0 0 0 0 0 0 0 0 0 0 0 0 0 0 0 0 0 0 0 0 0 0 0
0 0 0 0 0 0 0 0 0 0 0 0 0 0 0 0 0 0 0 0 0 0 0 0 0 0 0 0 0 0 0 0 0 0 0 0 0 0 0 0 0 0 0
0 0 0 0 0 0 0 0 0 0 0 0 0 0 0 0 0 0 0 0 0 0 0 0 0 1 2 1 1 1 0 0 0 0 0 0 0 0 0 0 0 0 0
0 0 0 0 0 0 0 0 0 0 0 0 0 0 0 0 0 0 0 0 0 0 0 0 1 2 3 2 1 1 0 0 0 0 0 0 0 0 0 0 0 0 0
0 0 0 0 0 0 0 0 0 0 0 0 0 0 0 0 0 0 0 0 0 0 0 0 1 2 3 2 1 0 0 0 0 0 0 0 0 0 0 0 0 0 0
0 0 0 0 0 0 0 0 0 0 0 0 0 0 0 0 0 0 0 0 0 0 0 0 0 1 2 2 1 0 0 0 0 0 0 0 0 0 0 0 0 0 0
0 0 0 0 0 0 0 0 0 0 0 0 0 0 0 0 0 0 0 0 0 0 0 0 0 0 1 1 1 0 0 0 0 0 0 0 0 0 0 0 0 0 0
0 0 0 0 0 0 0 0 0 0 0 0 0 0 0 0 0 0 0 0 0 0 0 0 0 0 0 0 0 0 0 0 0 0 0 0 0 0 0 0 0 0 0
0 0 0 0 0 0 0 0 0 0 0 0 0 0 0 0 0 0 0 0 0 0 0 0 0 0 0 0 0 0 0 0 0 0 0 0 0 0 0 0 0 0 0

GEFSMA_con_probscp_060.txt.gz
Probability
12 11 12 16 18 20 19 18 19 20 21 19 18 16 14 12 12 12 12 9 8 8 6 7 9 10 12 18 19 15 10 6 3 2 1 0 0 0 0 0 0 0 0
11 11 12 14 15 15 16 16 16 17 17 15 14 14 13 11 9 8 8 8 8 8 9 10 12 14 15 20 23 21 16 11 6 3 1 0 0 0 0 0 0 0 0
9 9 10 11 11 10 10 11 11 10 9 8 9 9 9 6 3 3 5 6 5 7 10 13 17 20 20 22 23 23 22 19 13 7 4 2 1 0 0 0 0 0 0
6 6 7 7 7 5 5 4 4 4 3 3 4 5 4 2 1 1 3 4 4 5 8 12 18 22 22 20 20 21 23 23 18 13 9 4 2 0 0 0 0 0 0
2 2 3 3 3 2 1 1 1 1 1 1 1 1 1 0 0 0 1 2 3 4 5 10 17 20 19 18 19 22 24 21 18 17 13 7 3 1 0 0 0 0 0
0 0 1 1 1 0 0 0 0 1 1 1 1 0 0 0 0 0 0 1 2 3 3 8 15 19 19 20 22 25 24 20 18 19 16 9 4 1 0 0 0 0 0
0 0 0 0 0 0 0 0 0 1 2 2 1 0 0 0 0 0 0 0 1 2 2 4 9 14 20 23 25 25 24 23 23 23 18 11 5 3 1 0 0 0 0
0 0 0 0 0 0 0 0 0 1 1 1 1 0 0 0 0 0 0 0 1 2 1 1 3 7 14 20 21 21 22 24 26 26 21 14 8 4 2 1 0 0 0
0 0 0 0 0 0 0 0 0 0 0 0 0 0 0 0 0 0 0 0 1 2 2 1 1 4 7 11 12 13 16 19 23 26 23 18 11 6 3 2 0 0 0
0 0 0 0 0 0 0 0 0 0 0 0 0 0 0 0 0 0 0 0 0 1 2 2 2 4 5 5 5 6 8 12 17 22 23 21 16 8 3 1 0 0 0
0 0 0 0 0 0 0 0 0 0 0 0 0 0 0 0 0 0 0 0 0 0 1 2 2 2 3 2 3 3 3 6 9 13 16 19 18 12 5 1 0 0 1
0 0 0 0 0 0 0 0 0 0 0 0 0 0 0 0 0 0 0 0 0 0 0 1 1 0 0 1 1 2 1 2 3 5 8 11 14 13 8 3 1 0 1
0 0 0 0 0 0 0 0 0 0 0 0 0 0 0 0 0 0 0 0 0 0 0 0 0 0 0 0 0 0 0 0 0 1 2 5 8 10 8 4 1 1 1
0 0 0 0 0 0 0 0 0 0 0 0 0 0 0 0 0 0 0 0 0 0 0 0 0 0 0 0 0 0 0 0 0 0 0 1 3 5 5 3 1 1 2
0 0 0 0 0 0 0 0 0 0 0 0 0 0 0 0 0 0 0 0 0 0 0 0 0 0 0 0 0 0 0 0 0 0 0 0 1 1 1 1 0 1 1
0 0 0 0 0 0 0 0 0 0 0 0 0 0 0 0 0 0 0 0 0 0 0 0 0 0 0 0 0 1 1 2 1 0 0 0 0 0 0 0 0 0 0
0 0 0 0 0 0 0 0 0 0 0 0 0 0 0 0 0 0 0 0 0 0 0 0 0 0 0 0 0 1 2 3 2 1 0 0 0 0 0 0 0 0 0
0 0 0 0 0 0 0 0 0 0 0 0 0 0 0 0 0 0 0 0 0 0 0 0 0 0 0 0 0 1 3 3 2 1 0 0 0 0 0 0 0 0 0
0 0 0 0 0 0 0 0 0 0 0 0 0 0 0 0 0 0 0 0 0 0 0 0 0 0 0 0 0 1 2 2 2 1 0 0 0 0 0 0 0 0 0
0 0 0 0 0 0 0 0 0 0 0 0 0 0 0 0 0 0 0 0 0 0 0 0 0 0 0 0 0 0 1 1 1 0 0 0 0 0 0 0 0 0 0
0 0 0 0 0 0 0 0 0 0 0 0 0 0 0 0 0 0 0 0 0 0 0 0 0 0 0 0 0 0 0 0 0 0 0 0 0 0 0 0 0 0 0
0 0 0 0 0 0 0 0 0 0 0 0 0 0 0 0 0 0 0 0 0 0 0 0 0 0 0 1 1 0 0 0 0 0 0 0 0 0 0 0 0 0 0
0 0 0 0 0 0 0 0 0 0 0 0 0 0 0 0 0 0 0 0 0 0 0 0 0 0 0 1 2 1 0 0 0 0 0 0 0 0 0 0 0 0 0
0 0 0 0 0 0 0 0 0 0 0 0 0 0 0 0 0 0 0 0 0 0 0 0 0 0 0 1 1 1 0 0 0 0 0 0 0 0 0 0 0 0 0
0 0 0 0 0 0 0 0 0 0 0 0 0 0 0 0 0 0 0 0 0 0 0 0 0 0 0 0 0 0 0 0 0 0 0 0 0 0 0 0 0 0 0
0 0 0 0 0 0 0 0 0 0 0 0 0 0 0 0 0 0 0 0 0 0 0 0 0 0 0 0 0 0 0 0 0 0 0 0 0 0 0 0 0 0 0

GEFSMA_con_probscp_066.txt.gz
Probability
20 21 26 27 23 21 21 21 21 22 23 24 23 22 19 19 20 24 30 35 30 22 15 10 9 8 8 6 3 3 4 3 2 2 1 0 0 0 0 0 0 0 0
16 17 20 22 20 19 20 19 19 21 23 25 23 20 19 21 24 27 31 33 30 25 22 18 15 15 15 11 7 7 9 9 9 7 4 1 1 0 0 0 0 0 0
9 9 11 13 13 13 15 15 15 18 21 22 20 18 20 22 26 29 31 33 33 33 32 29 26 26 22 17 13 14 19 20 19 16 10 5 3 1 0 0 0 0 0
2 3 5 6 6 7 8 10 11 12 15 16 15 15 18 21 23 25 26 29 33 38 40 38 34 30 26 22 22 25 30 31 30 26 20 13 6 2 1 0 0 0 0
1 2 3 3 3 3 4 4 5 6 8 8 8 9 12 16 18 17 17 19 24 29 36 40 38 30 25 29 36 40 42 41 40 38 33 25 15 7 3 1 0 0 0
2 2 2 2 2 2 1 1 1 2 2 3 3 3 5 8 11 11 11 12 13 17 23 34 41 35 28 33 43 50 54 53 49 45 42 37 28 17 9 4 1 0 0
1 1 1 1 1 1 0 0 0 0 1 1 1 1 1 2 4 6 8 9 10 12 15 25 36 40 39 37 38 46 57 60 55 50 48 45 38 26 14 8 4 1 0
0 0 0 0 0 0 0 0 0 0 0 0 0 0 0 0 1 2 4 6 9 12 13 16 25 35 42 43 36 35 48 60 61 58 55 51 41 28 16 10 6 2 0
0 0 0 0 0 0 0 0 0 0 0 0 0 0 0 0 0 0 1 3 7 10 10 10 14 22 32 41 38 31 38 54 63 63 60 55 42 27 16 10 6 2 1
0 0 0 0 0 0 0 0 0 0 0 0 0 0 0 0 0 0 0 1 4 6 6 5 8 12 18 28 33 30 31 41 53 61 63 57 44 29 18 11 6 2 1
0 0 0 0 0 0 0 0 0 0 0 0 0 0 0 0 0 0 0 0 1 2 2 2 3 7 10 16 22 21 19 23 33 46 54 52 43 32 22 16 10 4 2
0 0 0 0 0 0 0 0 0 0 0 0 0 0 0 0 0 0 0 0 0 0 1 1 2 4 7 9 10 9 8 8 12 22 31 34 32 27 23 20 14 8 6
0 0 0 0 0 0 0 0 0 0 0 0 0 0 0 0 0 0 0 0 0 0 0 0 1 3 5 6 5 4 3 1 1 5 9 13 16 17 17 17 14 11 10
0 0 0 0 0 0 0 0 0 0 0 0 0 0 0 0 0 0 0 0 0 0 0 0 1 2 4 4 3 2 2 1 0 0 1 3 4 5 7 9 10 10 9
0 0 0 0 0 0 0 0 0 0 0 0 0 0 0 0 0 0 0 0 0 0 0 0 1 2 3 3 1 2 3 1 0 0 0 0 0 0 1 3 5 5 5
0 0 0 0 0 0 0 0 0 0 0 0 0 0 0 0 0 0 0 0 0 0 0 0 1 2 2 2 2 4 5 3 1 0 0 0 0 0 0 0 1 1 1
0 0 0 0 0 0 0 0 0 0 0 0 0 0 0 0 0 0 0 0 0 0 0 0 1 2 3 3 4 5 6 5 3 1 0 0 0 0 0 0 0 0 0
0 0 0 0 0 0 0 0 0 0 0 0 0 0 0 0 0 0 0 0 0 0 0 0 0 1 3 3 4 5 6 7 5 1 0 0 0 0 0 0 0 0 0
0 0 0 0 0 0 0 0 0 0 0 0 0 0 0 0 0 0 0 0 0 0 0 0 0 1 2 3 3 4 6 7 5 1 0 0 0 0 0 0 0 0 0
0 0 0 0 0 0 0 0 0 0 0 0 0 0 0 0 0 0 0 0 0 0 0 0 0 0 1 3 3 3 5 6 4 1 0 0 1 1 1 0 0 0 0
0 0 0 0 0 0 0 0 0 0 0 0 0 0 0 0 0 0 0 0 0 0 0 0 0 0 1 2 3 2 3 4 3 2 2 2 3 4 3 1 0 0 0
0 0 0 0 0 0 0 0 0 0 0 0 0 0 0 0 0 0 0 0 0 0 0 0 0 0 0 1 2 2 3 4 4 5 5 5 6 7 5 3 1 0 0
0 0 0 0 0 0 0 0 0 0 0 0 0 0 0 0 0 0 0 0 0 0 0 0 0 0 0 0 1 1 2 3 4 5 5 5 6 7 6 3 1 0 0
0 0 0 0 0 0 0 0 0 0 0 0 0 0 0 0 0 0 0 0 0 0 0 0 0 0 0 0 0 0 1 2 3 3 3 3 4 4 4 2 1 0 0
0 0 0 0 0 0 0 0 0 0 0 0 0 0 0 0 0 0 0 0 0 0 0 0 0 0 0 0 0 0 0 1 1 1 2 2 2 1 1 1 1 0 0
0 0 0 0 0 0 0 0 0 0 0 0 0 0 0 0 0 0 0 0 0 0 0 0 0 0 0 0 0 0 1 1 1 1 2 2 1 0 0 1 0 0 0

GEFSMA_con_probscp_072.txt.gz
Probability
24 26 29 30 30 29 26 25 21 16 14 15 16 16 18 20 19 18 20 30 40 43 43 40 35 28 22 20 20 18 17 16 12 10 8 7 7 6 6 6 6 5 4
23 24 25 27 26 24 22 21 18 15 13 13 14 16 18 19 20 19 20 29 38 42 43 43 42 37 30 26 24 25 27 25 20 15 11 9 7 7 6 6 6 5 5
18 20 21 21 19 16 14 14 14 13 11 12 13 16 19 20 20 19 21 28 36 40 42 45 48 48 41 33 29 32 38 39 33 25 16 11 9 7 7 6 6 6 6
11 13 15 15 12 9 7 8 10 10 9 10 12 14 16 18 19 17 20 27 34 39 42 42 46 51 46 36 32 37 48 52 48 38 26 18 13 10 8 7 7 7 6
5 6 8 8 6 5 5 6 6 6 6 7 6 6 8 12 14 14 16 22 28 35 38 39 41 45 44 38 39 48 57 62 59 51 40 31 23 16 10 8 8 7 6
2 2 2 3 3 3 4 4 3 3 3 3 1 1 2 4 7 9 12 16 21 25 29 34 40 41 39 41 49 58 64 66 65 61 54 45 36 26 16 9 7 6 6
1 0 0 1 1 1 1 1 1 1 2 1 0 0 0 1 3 5 10 15 18 19 22 29 38 41 41 44 50 58 63 65 69 69 64 57 49 38 25 14 7 5 4
2 1 0 0 0 0 0 0 0 0 0 0 0 0 0 1 2 3 8 13 15 17 20 23 29 35 39 44 43 46 53 61 69 72 69 64 58 47 34 21 12 6 4
2 1 0 0 0 0 0 0 0 0 0 0 0 0 0 0 1 2 5 7 8 11 15 15 16 21 28 35 36 33 39 50 60 67 69 67 60 52 41 30 20 10 6
3 2 1 0 0 0 0 0 0 0 0 0 0 0 0 0 0 1 1 2 3 6 8 9 8 11 16 22 26 26 25 32 43 54 63 65 61 55 48 39 29 17 11
6 4 2 0 0 0 0 0 0 0 0 0 0 0 0 0 0 0 0 1 1 3 5 5 5 7 10 14 16 15 13 16 24 36 48 55 57 56 53 47 38 28 20
6 4 1 0 0 0 0 0 0 0 0 0 0 0 0 0 0 0 0 0 1 2 3 3 3 4 6 8 7 4 4 6 10 18 28 37 43 49 52 50 46 40 35
3 2 1 0 0 0 0 0 0 0 0 0 0 0 0 0 0 0 0 0 0 1 2 1 1 2 4 6 3 1 1 3 3 6 11 16 23 31 39 43 47 47 46
1 1 0 0 0 1 0 0 0 0 0 0 0 0 0 0 0 0 0 0 0 0 0 1 1 1 2 3 2 1 1 2 1 2 2 4 7 11 18 25 32 36 36
1 1 1 0 0 0 0 0 0 0 0 0 0 0 0 0 0 0 0 0 0 0 0 0 0 0 0 1 0 0 1 1 0 0 0 0 0 1 3 7 11 13 12
2 2 2 1 1 0 0 0 0 0 0 0 0 1 0 0 0 0 0 0 0 0 0 0 0 0 0 0 0 0 0 0 0 0 0 0 0 0 0 0 1 1 0
2 2 3 3 2 0 0 0 0 0 0 0 0 0 0 0 0 0 0 0 0 0 0 0 0 0 0 1 1 1 0 0 0 0 0 0 0 0 0 0 0 0 0
4 4 5 4 2 0 0 0 1 1 1 0 0 0 0 0 0 0 0 0 0 0 0 0 0 0 0 1 2 2 1 0 0 0 0 0 0 0 0 0 0 0 0
5 5 6 5 3 1 0 1 2 2 2 1 1 0 0 0 0 1 1 1 0 0 0 0 0 0 0 1 2 2 1 0 0 0 0 0 0 0 0 0 0 0 0
4 4 5 5 4 1 0 1 1 2 2 3 2 1 0 0 0 0 0 0 0 0 0 0 0 0 0 0 1 1 0 0 0 1 1 0 0 0 0 0 0 0 0
5 5 5 4 4 2 0 0 0 0 1 3 3 2 1 0 0 0 0 0 0 0 0 0 0 0 0 0 0 0 0 0 1 2 3 1 0 0 0 0 0 0 0
9 9 7 6 4 2 0 0 0 0 0 2 3 3 2 0 0 0 0 0 0 0 0 0 0 0 0 1 0 0 0 0 1 3 4 3 2 1 1 0 0 0 0
13 14 12 9 6 3 1 0 0 0 0 1 2 3 2 1 0 0 0 0 0 0 0 0 0 0 0 1 1 1 1 0 0 2 3 3 3 3 2 1 0 0 0
17 17 15 11 8 5 1 0 0 0 0 1 2 3 3 2 1 0 0 0 0 0 0 0 0 0 0 1 2 2 1 0 0 0 1 1 2 3 2 1 0 0 0
19 17 14 11 10 8 3 0 0 0 0 1 2 3 3 2 1 0 0 0 0 0 0 0 0 0 0 1 1 1 1 0 0 0 0 0 1 2 2 1 0 0 0
18 16 13 12 12 11 6 1 0 0 0 1 2 3 2 1 0 0 0 0 0 0 0 0 0 0 0 0 0 0 0 0 0 0 0 0 1 2 1 0 0 0 0

GEFSMA_con_probscp_078.txt.gz
Probability
0 0 0 1 1 1 0 0 0 1 1 1 0 1 1 0 1 1 3 6 7 7 7 7 8 6 4 4 5 3 2 1 0 0 0 0 0 0 0 0 0 0 0
0 0 0 0 0 0 0 0 0 0 0 0 0 1 1 1 1 1 2 3 5 5 5 6 8 7 4 3 4 3 3 3 2 0 0 0 0 0 0 0 0 0 0
0 0 0 0 0 0 0 0 0 0 0 0 0 1 1 1 1 1 1 1 2 2 2 5 8 8 5 2 2 4 5 7 6 3 1 1 0 0 0 0 0 0 1
0 0 1 0 0 0 0 0 0 0 0 0 0 0 0 1 1 0 0 1 1 0 1 3 7 9 7 3 2 3 6 10 13 10 7 5 2 1 0 0 0 1 2
0 0 0 0 0 0 0 0 0 0 0 0 0 0 0 0 0 0 0 0 0 0 0 1 4 6 6 5 4 4 5 11 16 17 14 11 8 4 1 0 0 2 3
0 0 0 0 0 0 0 0 0 0 0 0 0 0 0 0 0 0 0 0 0 0 0 0 2 3 4 6 8 7 6 9 15 20 19 16 13 10 4 1 0 1 2
0 0 0 0 0 0 0 0 0 0 0 0 0 0 0 0 0 0 0 0 0 0 0 0 2 3 3 5 9 11 10 10 14 20 21 20 19 17 11 5 2 1 2
0 0 0 0 0 0 0 0 0 0 0 0 0 0 0 0 0 0 0 0 0 0 0 0 1 2 2 3 6 11 13 12 13 17 21 25 26 24 19 11 4 3 3
0 0 0 0 0 0 0 0 0 0 0 0 0 0 0 0 0 0 0 0 0 0 0 0 0 1 1 1 2 5 8 8 8 12 21 26 27 26 23 16 8 4 3
0 0 0 0 0 0 0 0 0 0 0 0 0 0 0 0 0 0 0 0 0 0 0 0 0 0 0 0 0 0 1 3 4 9 18 25 26 26 25 20 12 6 4
0 0 0 0 0 0 0 0 0 0 0 0 0 0 0 0 0 0 0 0 0 0 0 0 0 0 0 0 0 0 0 1 2 6 15 22 25 28 27 23 16 9 5
0 0 0 0 0 0 0 0 0 0 0 0 0 0 0 0 0 0 0 0 0 0 0 0 0 0 0 0 0 0 0 0 1 4 8 14 21 25 26 23 18 12 9
0 0 0 0 0 0 0 0 0 0 0 0 0 0 0 0 0 0 0 0 0 0 0 0 0 0 0 0 0 0 0 0 0 1 2 5 11 15 18 20 19 16 14
0 0 0 0 0 0 0 0 0 0 0 0 0 0 0 0 0 0 0 0 0 0 0 0 0 0 0 0 0 0 0 0 0 0 0 1 3 5 8 12 14 14 14
0 0 0 0 0 0 0 0 0 0 0 0 0 0 0 0 0 0 0 0 0 0 0 0 0 0 0 0 0 0 0 0 0 0 0 0 0 1 2 5 7 7 7
0 0 0 0 0 0 0 0 0 0 0 0 0 0 0 0 0 0 0 0 0 0 0 0 0 0 0 0 0 0 0 0 0 0 0 0 0 0 0 1 2 2 1
0 0 0 0 0 0 0 0 0 0 0 0 0 0 0 0 0 0 0 0 0 0 0 0 0 0 0 0 0 0 0 0 0 0 0 0 0 0 0 0 0 0 0
0 0 0 0 0 0 0 0 0 0 0 0 0 0 0 0 0 0 0 0 0 0 0 0 0 0 0 0 0 0 0 0 0 0 0 0 0 0 0 0 0 0 0
0 0 0 0 0 0 0 0 0 0 0 0 0 0 0 0 0 0 0 0 0 0 0 0 0 0 0 0 0 0 0 0 0 0 0 0 0 0 0 0 0 0 0
0 0 0 0 0 0 0 0 0 0 0 0 0 0 0 0 0 0 0 0 0 0 0 0 0 0 0 0 0 0 0 0 0 0 0 0 0 0 0 0 0 0 0
0 0 0 0 0 0 0 0 0 0 0 0 0 0 0 0 0 0 0 0 0 0 0 0 0 0 0 0 0 0 0 0 0 0 0 0 0 0 0 0 0 0 0
0 0 0 0 0 0 0 0 0 0 0 0 0 0 0 0 0 0 0 0 0 0 0 0 0 0 0 0 0 0 0 0 0 0 0 0 0 0 0 0 0 0 0
0 0 0 0 0 0 0 0 0 0 0 0 0 0 0 0 0 0 0 0 0 0 0 0 0 0 0 0 0 0 0 0 0 0 0 0 0 0 0 0 0 0 0
0 0 0 0 0 0 0 0 0 0 0 0 0 0 0 0 0 0 0 0 0 0 0 0 0 0 0 0 0 0 0 0 0 0 0 0 0 0 0 0 0 0 0
0 0 0 0 0 0 0 0 0 0 0 0 0 0 0 0 0 0 0 0 0 0 0 0 0 0 0 0 0 0 0 0 0 0 0 0 0 0 0 0 0 0 0
0 0 0 0 0 0 0 0 0 0 0 0 0 0 0 0 0 0 0 0 0 0 0 0 0 0 0 0 0 0 0 0 0 0 0 0 0 0 0 0 0 0 0

GEFSMA_con_probscp_084.txt.gz
Probability
0 0 0 0 0 0 0 0 0 0 0 0 0 0 0 0 0 0 1 1 3 4 3 1 0 0 0 0 0 0 0 0 0 0 0 0 0 0 0 0 0 0 0
0 0 0 0 0 0 0 0 0 0 0 0 0 0 0 0 0 0 0 1 2 2 3 2 1 1 0 0 0 0 0 1 1 0 0 0 0 0 0 0 0 0 0
0 0 0 0 0 0 0 0 0 0 0 0 0 0 0 0 0 0 0 0 0 1 2 2 2 2 1 1 0 0 1 3 4 2 0 0 0 0 0 0 0 0 0
0 0 0 0 0 0 0 0 0 0 0 0 0 0 0 0 0 0 0 0 0 0 1 1 2 3 2 1 0 0 1 3 5 4 2 0 0 0 0 0 0 0 0
0 0 0 0 0 0 0 0 0 0 0 0 0 0 0 0 0 0 0 0 0 0 0 0 1 3 3 1 0 0 1 2 3 4 3 2 1 0 0 0 0 0 0
0 0 0 0 0 0 0 0 0 0 0 0 0 0 0 0 0 0 0 0 0 0 0 0 0 1 2 1 0 0 0 1 2 2 4 4 2 1 0 0 0 0 0
0 0 0 0 0 0 0 0 0 0 0 0 0 0 0 0 0 0 0 0 0 0 0 0 0 0 1 1 0 0 1 1 1 2 5 5 4 2 1 1 0 0 0
0 0 0 0 0 0 0 0 0 0 0 0 0 0 0 0 0 0 0 0 0 0 0 0 0 0 0 0 0 1 2 3 3 4 5 6 5 5 4 3 1 0 0
0 0 0 0 0 0 0 0 0 0 0 0 0 0 0 0 0 0 0 0 0 0 0 0 0 0 0 0 1 1 1 3 4 6 7 8 8 7 6 5 3 1 0
0 0 0 0 0 0 0 0 0 0 0 0 0 0 0 0 0 0 0 0 0 0 0 0 0 0 0 0 0 0 0 2 4 7 9 10 9 7 8 8 6 3 2
0 0 0 0 0 0 0 0 0 0 0 0 0 0 0 0 0 0 0 0 0 0 0 0 0 0 0 0 0 0 0 1 2 5 8 9 9 7 7 10 10 8 7
0 0 0 0 0 0 0 0 0 0 0 0 0 0 0 0 0 0 0 0 0 0 0 0 0 0 0 0 0 0 0 0 1 2 4 6 6 5 5 9 12 13 13
0 0 0 0 0 0 0 0 0 0 0 0 0 0 0 0 0 0 0 0 0 0 0 0 0 0 0 0 0 0 0 0 0 1 1 2 2 1 3 6 9 11 13
0 0 0 0 0 0 0 0 0 0 0 0 0 0 0 0 0 0 0 0 0 0 0 0 0 0 0 0 0 0 0 0 0 0 0 0 0 0 1 2 3 5 6
0 0 0 0 0 0 0 0 0 0 0 0 0 0 0 0 0 0 0 0 0 0 0 0 0 0 0 0 0 0 0 0 0 0 0 0 0 0 0 0 1 1 2
0 0 0 0 0 0 0 0 0 0 0 0 0 0 0 0 0 0 0 0 0 0 0 0 0 0 0 0 0 0 0 0 0 0 0 0 0 0 0 0 0 0 1
0 0 0 0 0 0 0 0 0 0 0 0 0 0 0 0 0 0 0 0 0 0 0 0 0 0 0 0 0 0 0 0 0 0 0 0 0 0 0 0 0 0 0
0 0 0 0 0 0 0 0 0 0 0 0 0 0 0 0 0 0 0 0 0 0 0 0 0 0 0 0 0 0 0 0 0 0 0 0 0 0 0 0 0 0 0
0 0 0 0 0 0 0 0 0 0 0 0 0 0 0 0 0 0 0 0 0 0 0 0 0 0 0 0 0 0 0 0 0 0 0 0 0 0 0 0 0 0 0
0 0 0 0 0 0 0 0 0 0 0 0 0 0 0 0 0 0 0 0 0 0 0 0 0 0 0 0 0 0 0 0 0 0 0 0 0 0 0 0 0 0 0
0 0 0 0 0 0 0 0 0 0 0 0 0 0 0 0 0 0 0 0 0 0 0 0 0 0 0 0 0 0 0 0 0 0 0 0 0 0 0 0 0 0 0
0 0 0 0 0 0 0 0 0 0 0 0 0 0 0 0 0 0 0 0 0 0 0 0 0 0 0 0 0 0 0 0 0 0 0 0 0 0 0 0 0 0 0
0 0 0 0 0 0 0 0 0 0 0 0 0 0 0 0 0 0 0 0 0 0 0 0 0 0 0 0 0 0 0 0 0 0 0 0 0 0 0 0 0 0 0
0 0 0 0 0 0 0 0 0 0 0 0 0 0 0 0 0 0 0 0 0 0 0 0 0 0 0 0 0 0 0 0 0 0 0 0 0 0 0 0 0 0 0
0 0 0 0 0 0 0 0 0 0 0 0 0 0 0 0 0 0 0 0 0 0 0 0 0 0 0 0 0 0 0 0 0 0 0 0 0 0 0 1 0 0 0
0 0 0 0 0 0 0 0 0 0 0 0 0 0 0 0 0 0 0 0 0 0 0 0 0 0 0 0 0 0 0 0 0 0 0 0 0 0 0 1 0 0 0

GEFSMA_con_probscp_090.txt.gz
Probability
0 0 0 0 0 0 0 0 0 0 0 0 1 2 2 1 0 0 0 0 1 3 4 4 3 4 4 2 2 3 3 4 4 4 3 3 3 1 1 2 1 0 0
0 0 0 0 0 0 0 0 0 0 0 0 0 1 1 0 0 0 0 0 1 3 5 4 4 4 4 3 3 3 3 3 4 4 3 3 3 2 2 2 2 1 0
0 0 0 0 0 0 0 0 0 0 0 0 0 0 0 0 0 0 0 0 0 2 4 5 5 5 4 4 3 3 1 2 3 4 3 3 3 3 3 3 3 2 1
0 0 0 0 0 0 0 0 0 0 0 0 0 0 0 0 0 0 0 0 0 0 2 4 4 3 3 3 3 3 1 1 3 4 4 3 3 3 3 3 3 3 3
0 0 0 0 0 0 0 0 0 0 0 0 0 0 0 0 0 0 0 0 0 0 0 1 1 1 1 2 3 3 2 2 3 5 4 3 3 3 3 4 3 3 3
0 0 0 0 0 0 0 0 0 0 0 0 0 0 0 0 0 0 0 0 0 0 0 0 0 0 1 2 2 3 3 2 3 5 5 5 4 4 4 5 4 3 3
0 0 0 0 0 0 0 0 0 0 0 0 0 0 0 0 0 0 0 0 0 0 0 0 0 0 1 2 2 3 4 4 4 6 7 7 7 5 5 5 4 3 3
0 0 0 0 0 0 0 0 0 0 0 0 0 0 0 0 0 0 0 0 0 0 0 0 0 0 1 2 1 2 4 5 4 5 7 8 7 5 4 4 4 3 3
0 0 0 0 0 0 0 0 0 0 0 0 0 0 0 0 0 0 0 0 0 0 0 0 0 0 0 1 1 1 3 5 5 5 6 6 6 4 4 4 4 3 3
0 0 0 1 1 0 0 0 0 0 0 0 0 0 0 0 0 0 0 0 0 0 0 0 0 0 0 0 0 0 1 3 4 4 4 5 6 5 4 4 4 4 4
0 1 1 2 2 1 1 1 1 0 0 0 0 0 0 0 0 0 0 0 0 0 0 0 0 0 0 0 0 0 0 1 1 2 3 5 6 6 5 5 5 6 6
1 2 3 3 3 3 2 2 2 1 0 0 0 0 0 0 0 0 0 0 0 0 0 0 0 0 0 0 0 0 0 0 0 0 2 4 6 6 7 6 7 8 8
3 3 3 3 3 3 3 3 2 1 0 0 0 0 0 0 0 0 0 0 0 0 0 0 0 0 0 0 0 0 0 0 0 0 0 2 3 4 6 7 7 8 10
3 3 3 3 3 3 3 3 2 1 1 0 0 0 0 0 0 0 0 0 0 0 0 0 0 0 0 0 0 0 0 0 0 0 0 0 1 2 3 4 5 6 8
3 3 3 3 3 3 3 3 2 2 2 1 0 0 0 0 0 0 0 0 0 0 0 0 0 0 0 0 0 0 0 0 0 0 0 0 0 1 1 1 2 3 4
4 4 4 3 3 3 3 2 1 2 2 1 0 0 0 0 0 0 0 0 0 0 0 0 0 0 0 0 0 0 0 0 0 0 0 0 0 0 0 0 0 1 1
5 5 5 4 3 3 3 3 1 1 1 2 1 1 2 1 1 1 1 0 0 0 0 0 0 0 0 0 0 0 0 0 0 0 0 0 0 0 0 0 0 0 0
5 5 5 4 3 3 3 3 2 1 1 2 3 3 3 3 2 2 2 1 1 1 0 0 0 0 0 0 0 0 0 0 0 0 0 0 0 0 0 0 0 0 0
5 5 5 4 3 3 3 3 3 1 1 3 3 3 3 3 4 4 4 3 2 2 1 1 1 1 0 0 0 0 0 0 0 0 0 0 0 0 0 0 0 0 0
9 7 5 4 3 3 3 3 3 3 3 3 3 3 3 4 5 5 5 5 5 4 3 2 1 0 0 0 0 0 0 0 0 0 0 0 0 0 0 0 0 0 0
12 10 7 4 4 3 3 3 3 3 3 3 3 3 3 3 4 4 4 4 5 5 5 3 1 0 0 0 0 0 0 0 0 0 0 0 0 0 0 0 0 0 0
12 12 9 5 5 4 2 1 1 2 3 4 4 4 4 3 2 2 2 1 2 4 5 4 2 2 2 1 0 0 0 0 0 0 0 0 0 0 0 0 0 0 0
14 13 11 7 6 4 2 0 0 1 3 4 6 6 5 4 4 3 2 1 2 2 3 4 4 4 4 3 2 2 0 0 0 1 1 1 0 0 0 0 0 0 0
17 16 14 11 9 6 2 0 0 0 1 3 5 6 7 6 5 4 4 4 4 4 2 2 3 4 4 4 4 3 1 0 0 1 1 1 0 0 0 0 0 0 0
18 16 14 14 13 9 3 0 0 0 0 2 4 4 5 5 3 2 4 6 8 7 4 1 1 1 2 2 2 2 1 0 0 0 1 1 0 1 1 0 0 0 0
16 14 12 13 15 12 5 1 0 0 0 1 3 3 2 2 1 0 2 7 10 9 6 3 1 0 0 0 0 1 0 0 0 0 1 1 1 1 1 0 0 0 0